Flag for Canada Weather past 2 weeks in Prince Rupert, British Columbia, Canada

Now
57 °F

Sunny.


Feels Like: 57 °F
Forecast: 49 / 60 °F
Wind: 3 mph from Southwest

Location: Prince Rupert

Current Time: Sep 22, 2014 at 12:01:28 PM

Latest Report: Sep 22, 2014 at 11:00 AM


Visibility: 9 mi

Pressure: 29.88 "Hg

Humidity: 88%

Dew point: 54 °F

Location of Prince RupertLocation

Historic Weather in Prince Rupert — Graph

°F

Prince Rupert temperature yesterday

Maximum temperature yesterday: 68 °F (at 12:00 PM)
Minimum temperature yesterday: 54 °F (at 6:00 AM)
Average temperature yesterday: 60 °F

Past Weeks' High & Low Weather Summary

 TemperatureHumidityPressure
High68 °F (Sep 21, 12:00 PM)100% (Sep 7, 12:00 PM)30.32 "Hg (Sep 7, 12:00 PM)
Low45 °F (Sep 16, 7:47 AM)34% (Sep 10, 5:00 PM)29.43 "Hg (Sep 18, 5:00 PM)
Average55 °F87%29.93 "Hg
* Reported Sep 7 11:59 AM — Sep 22 11:00 AM, Prince Rupert, Weather by CustomWeather, © 2014

Note: Actual official high and low records may vary slightly from our data, if they occured in-between our weather recording intervals... More about our weather records

Advertising

Prince Rupert weather history for previous 24 hours

 ConditionsComfort  
Time TempWeatherWind HumidityBarometerVisibility
11:00 AM
Sep 22
57 °FSunny.3 mph88%29.88 "Hg9 mi
9:00 AM55 °FPassing clouds.2 mph94%29.87 "Hg9 mi
8:00 AM52 °FPassing clouds.2 mph94%29.87 "Hg9 mi
7:00 AM54 °FPartly cloudy.3 mph94%29.86 "Hg9 mi
6:00 AM52 °FPartly cloudy.3 mph100%29.84 "Hg9 mi
5:00 AM54 °FPassing clouds.3 mph94%29.83 "Hg9 mi
4:03 AM54 °FPassing clouds.3 mph94%29.83 "Hg9 mi
3:00 AM55 °FOvercast.2 mph88%29.82 "Hg9 mi
2:00 AM55 °FMostly cloudy.3 mph94%29.81 "Hg9 mi
1:00 AM55 °FMostly cloudy.5 mph94%29.79 "Hg9 mi
12:00 AM55 °FMostly cloudy.7 mph94%29.77 "Hg9 mi
11:51 PM
Sep 21
55 °FOvercast.7 mph94%29.77 "Hg9 mi
11:00 PM55 °FMostly cloudy.7 mph94%29.76 "Hg9 mi
9:53 PM55 °FOvercast.8 mph100%29.74 "Hg9 mi
9:00 PM55 °FLight rain. Mostly cloudy.7 mph100%29.71 "Hg9 mi
8:45 PM55 °FLight rain. Overcast.5 mph100%29.71 "Hg9 mi
8:01 PM55 °FRain. Fog.6 mph100%29.71 "Hg5 mi
7:00 PM55 °FLight rain. Fog.9 mph100%29.69 "Hg2 mi
6:54 PM55 °FRain. Fog.6 mph94%29.69 "Hg2 mi
5:00 PM64 °FLight rain. Overcast.16 mph60%29.61 "Hg9 mi
4:00 PM66 °FMore clouds than sun.16 mph52%29.61 "Hg9 mi
3:00 PM68 °FPartly sunny.17 mph46%29.59 "Hg9 mi
1:00 PM66 °FSunny.10 mph56%29.60 "Hg9 mi
12:00 PM68 °FSunny.14 mph56%29.59 "Hg9 mi
Weather by CustomWeather, © 2014

See weather overviewHow to use our weather pages